Temp
43 42 41 40 40 40 39 39 40 39 40 39 38 37 36 35 35 33 31 31 30 30 30 30 31 30 30 31 31 30 30 30 30 30 29 29 28 28 27 28 28 28
43 43 41 41 40 40 39 39 38 38 38 39 39 38 37 35 34 32 31 31 30 30 30 30 30 30 30 29 30 29 29 29 29 30 29 28 28 28 27 27 27 28
44 43 42 40 39 39 39 39 38 37 37 38 38 37 36 35 32 32 31 31 30 30 29 29 29 30 29 29 29 29 28 28 28 29 29 28 28 28 28 28 27 27
44 43 42 41 41 40 39 38 38 38 37 35 35 35 34 33 32 31 30 30 30 29 29 29 29 29 29 28 28 27 28 28 29 29 28 28 28 28 28 28 28 27
44 43 43 42 41 40 40 38 37 36 36 35 35 34 32 31 30 29 29 29 29 28 28 28 28 28 28 28 27 26 27 27 28 28 27 26 27 27 27 27 25 24
46 46 44 42 41 40 38 38 37 36 35 34 33 33 31 30 29 28 28 27 27 27 27 27 27 27 27 27 27 26 26 26 27 27 26 26 26 27 26 25 24 23
44 44 43 42 40 40 39 37 36 36 35 35 33 31 30 28 27 27 27 27 27 26 26 26 26 26 27 27 26 25 26 26 26 26 25 25 25 25 26 24 23 23
44 44 43 41 41 39 38 37 36 35 35 34 33 30 29 27 27 26 26 26 25 25 26 26 26 26 26 26 25 25 25 25 25 25 24 24 24 24 24 23 22 21
43 43 43 41 39 39 37 36 36 35 35 33 32 30 29 27 26 26 25 25 24 24 24 25 25 25 25 25 24 24 24 24 25 24 24 23 22 23 23 22 21 20
42 42 41 41 39 39 37 36 36 35 34 32 30 30 27 27 26 25 24 24 23 23 23 23 23 24 24 24 23 24 23 23 24 24 23 22 22 21 21 21 21 20
42 41 40 40 39 38 37 36 34 35 34 31 29 28 27 26 25 25 24 23 22 22 22 22 23 23 23 23 24 24 23 23 22 21 21 21 21 21 21 20 20 20
40 40 39 39 38 38 36 36 35 33 33 31 28 26 26 25 24 23 23 22 22 22 22 22 23 23 22 23 23 23 23 22 21 20 20 19 19 20 20 20 20 20
39 38 38 37 37 36 36 35 34 32 32 30 29 26 25 23 23 22 22 21 21 21 21 21 21 22 21 22 22 22 21 20 19 19 19 19 19 19 19 19 20 20
39 38 38 37 36 35 35 34 33 32 30 30 28 25 23 21 20 21 21 22 21 21 21 21 20 20 21 21 20 20 19 19 19 18 18 18 17 18 18 17 18 19
39 39 37 35 34 34 34 34 31 31 29 28 25 23 22 21 21 21 20 19 19 20 20 20 19 19 19 19 18 18 18 18 18 17 17 16 16 17 17 17 17 17
37 35 34 33 33 33 31 31 31 30 27 26 24 22 21 21 20 20 18 18 18 18 18 18 18 18 20 21 21 18 17 17 17 17 16 16 15 15 15 16 16 16
34 33 34 33 32 31 31 30 29 27 25 24 23 22 20 19 19 18 17 17 17 17 16 17 17 17 20 22 22 22 18 16 15 15 15 15 14 14 13 15 15 16
32 31 30 30 30 30 30 28 27 25 24 22 21 20 20 19 18 17 17 17 16 16 16 16 16 19 21 21 22 22 22 16 15 14 14 13 13 13 14 14 15 15
28 29 28 29 29 28 26 25 24 23 21 20 19 19 18 17 16 16 15 16 15 14 14 15 15 19 21 21 22 22 23 20 13 13 13 13 13 13 13 13 14 15
24 22 21 22 23 23 23 23 22 21 20 20 19 18 17 16 16 15 15 14 14 14 14 14 14 18 20 21 21 22 22 22 15 12 12 13 13 13 13 13 13 13
19 19 18 19 20 21 21 21 21 21 20 19 18 17 16 14 14 14 13 13 13 13 13 13 13 18 19 20 21 22 22 21 18 16 14 12 13 13 13 13 13 14
17 16 17 17 18 19 19 19 20 19 18 20 19 18 17 16 15 15 13 12 13 13 12 11 13 18 19 20 20 21 21 18 17 16 15 14 13 13 14 14 15 15
16 15 15 16 16 16 16 16 16 17 18 20 17 17 16 15 14 14 14 13 12 12 11 11 12 16 19 19 20 20 19 16 15 15 14 14 14 15 14 15 15 16
14 13 12 12 13 13 14 14 15 16 17 19 18 15 14 14 14 14 14 13 12 11 11 10 11 13 17 18 19 20 19 15 14 14 13 13 13 15 16 16 16 18
11 11 10 10 11 11 12 13 14 15 16 18 17 16 14 14 14 13 13 13 13 11 13 11 10 12 16 17 18 19 18 15 14 13 12 12 13 13 15 16 17 18
9 8 9 8 9 10 11 12 14 14 15 16 16 15 14 14 13 12 12 12 12 11 10 11 10 10 12 16 17 18 19 16 14 12 11 11 12 13 13 14 16 17
MSLP
1016.55 1016.47 1016.39 1016.27 1016.07 1015.91 1015.75 1015.67 1015.47 1015.23 1014.95 1014.87 1014.79 1014.75 1014.95 1015.27 1015.67 1015.99 1016.43 1016.83 1017.07 1017.31 1017.47 1017.51 1017.59 1017.83 1017.95 1018.03 1018.03 1018.03 1017.95 1017.95 1018.03 1018.11 1018.27 1018.47 1018.63 1018.79 1018.87 1018.87 1018.87 1018.87
1016.27 1016.15 1015.99 1015.87 1015.71 1015.55 1015.39 1015.27 1015.11 1014.95 1014.75 1014.71 1014.67 1014.63 1014.67 1014.87 1015.15 1015.47 1015.79 1016.07 1016.39 1016.63 1016.91 1017.11 1017.23 1017.39 1017.55 1017.63 1017.63 1017.63 1017.59 1017.55 1017.67 1017.71 1017.87 1018.07 1018.19 1018.39 1018.51 1018.59 1018.67 1018.67
1016.03 1015.87 1015.75 1015.63 1015.43 1015.19 1015.07 1014.91 1014.79 1014.71 1014.59 1014.35 1014.39 1014.47 1014.63 1014.79 1015.11 1015.23 1015.39 1015.55 1015.71 1015.95 1016.23 1016.51 1016.75 1016.95 1017.11 1017.23 1017.27 1017.31 1017.23 1017.19 1017.27 1017.31 1017.51 1017.63 1017.79 1017.95 1018.03 1018.23 1018.35 1018.39
1015.91 1015.75 1015.55 1015.27 1015.03 1014.95 1014.79 1014.71 1014.55 1014.43 1014.39 1014.31 1014.23 1014.31 1014.39 1014.55 1014.83 1015.07 1015.27 1015.47 1015.47 1015.55 1015.71 1015.91 1016.15 1016.39 1016.59 1016.79 1016.91 1016.87 1016.83 1016.83 1016.83 1016.95 1017.11 1017.27 1017.39 1017.55 1017.67 1017.75 1017.91 1018.03
1015.39 1015.47 1015.31 1015.11 1014.95 1014.71 1014.51 1014.39 1014.31 1014.23 1014.11 1013.99 1014.11 1014.15 1014.27 1014.39 1014.59 1014.75 1014.91 1015.07 1015.27 1015.43 1015.51 1015.63 1015.79 1015.91 1016.03 1016.19 1016.35 1016.43 1016.39 1016.43 1016.43 1016.51 1016.67 1016.83 1016.99 1017.19 1017.35 1017.47 1017.55 1017.71
1014.23 1014.27 1014.47 1014.63 1014.51 1014.51 1014.39 1014.19 1013.99 1013.91 1013.83 1013.83 1013.83 1013.87 1013.95 1014.11 1014.31 1014.43 1014.55 1014.71 1014.87 1015.03 1015.15 1015.35 1015.55 1015.59 1015.59 1015.63 1015.71 1015.83 1015.91 1015.91 1015.95 1016.07 1016.19 1016.39 1016.59 1016.79 1017.03 1017.19 1017.27 1017.43
1014.35 1013.91 1014.03 1014.07 1014.23 1013.99 1013.87 1013.87 1013.71 1013.55 1013.51 1013.43 1013.51 1013.59 1013.87 1013.91 1014.03 1014.15 1014.27 1014.39 1014.55 1014.67 1014.79 1014.95 1015.15 1015.31 1015.27 1015.23 1015.19 1015.23 1015.35 1015.43 1015.47 1015.59 1015.75 1015.91 1016.15 1016.39 1016.63 1016.91 1017.07 1017.19
1014.03 1013.79 1013.55 1013.75 1013.59 1013.63 1013.47 1013.27 1013.31 1013.27 1013.15 1013.11 1013.03 1013.27 1013.47 1013.59 1013.67 1013.87 1014.07 1014.15 1014.23 1014.31 1014.47 1014.63 1014.75 1014.91 1014.99 1014.91 1014.83 1014.83 1014.91 1015.03 1015.07 1015.19 1015.31 1015.55 1015.67 1015.95 1016.19 1016.47 1016.79 1016.99
1013.51 1013.27 1012.95 1012.99 1013.19 1013.03 1013.11 1012.83 1012.63 1012.67 1012.75 1012.79 1012.79 1012.95 1013.07 1013.23 1013.27 1013.43 1013.63 1013.83 1013.87 1013.99 1014.11 1014.23 1014.39 1014.55 1014.59 1014.55 1014.51 1014.51 1014.55 1014.63 1014.71 1014.79 1014.91 1015.11 1015.31 1015.47 1015.75 1016.03 1016.43 1016.71
1013.15 1012.91 1012.67 1012.39 1012.47 1012.47 1012.63 1012.63 1012.43 1012.39 1012.35 1012.47 1012.59 1012.63 1012.71 1012.75 1012.87 1013.03 1013.27 1013.39 1013.47 1013.59 1013.67 1013.83 1013.99 1014.15 1014.19 1014.19 1014.23 1014.27 1014.31 1014.39 1014.47 1014.59 1014.63 1014.75 1014.95 1015.15 1015.39 1015.63 1015.87 1016.15
1012.63 1012.47 1012.35 1012.11 1011.91 1011.99 1012.19 1012.39 1012.23 1012.03 1012.07 1012.19 1012.35 1012.35 1012.35 1012.43 1012.51 1012.67 1012.83 1012.99 1013.07 1013.19 1013.27 1013.39 1013.51 1013.67 1013.83 1013.83 1013.87 1013.87 1013.99 1014.19 1014.35 1014.51 1014.63 1014.75 1014.87 1015.03 1015.19 1015.35 1015.51 1015.63
1012.31 1012.03 1011.99 1011.83 1011.67 1011.59 1011.79 1011.95 1012.03 1011.79 1011.67 1011.75 1011.99 1011.95 1012.03 1011.99 1012.07 1012.19 1012.35 1012.51 1012.63 1012.79 1012.87 1012.99 1013.11 1013.23 1013.43 1013.51 1013.51 1013.55 1013.63 1013.91 1014.19 1014.43 1014.55 1014.79 1014.87 1014.87 1014.95 1015.11 1015.27 1015.31
1011.83 1011.79 1011.63 1011.43 1011.27 1011.31 1011.31 1011.47 1011.55 1011.63 1011.39 1011.47 1011.47 1011.51 1011.55 1011.63 1011.71 1011.79 1011.87 1012.07 1012.19 1012.39 1012.47 1012.59 1012.75 1012.83 1013.03 1013.19 1013.27 1013.27 1013.39 1013.63 1013.95 1014.19 1014.43 1014.51 1014.71 1014.87 1014.87 1014.95 1015.03 1015.07
1011.63 1011.23 1011.03 1010.95 1011.07 1011.11 1010.99 1010.91 1010.99 1011.19 1010.95 1010.95 1011.07 1011.15 1011.15 1011.19 1011.27 1011.31 1011.39 1011.51 1011.67 1011.87 1012.03 1012.23 1012.39 1012.47 1012.55 1012.79 1012.95 1013.07 1013.19 1013.39 1013.59 1013.91 1014.11 1014.27 1014.55 1014.59 1014.71 1014.83 1014.87 1014.91
1011.15 1010.95 1010.83 1010.87 1010.95 1010.87 1010.51 1010.47 1010.79 1010.79 1010.71 1010.67 1010.75 1010.75 1010.71 1010.67 1010.71 1010.83 1011.03 1011.11 1011.27 1011.39 1011.59 1011.75 1011.91 1012.03 1012.11 1012.31 1012.63 1012.83 1012.95 1013.07 1013.27 1013.55 1013.75 1013.99 1014.15 1014.27 1014.43 1014.59 1014.75 1014.79
1011.31 1011.15 1011.07 1010.87 1010.63 1010.43 1010.59 1010.47 1010.39 1010.39 1010.35 1010.39 1010.39 1010.43 1010.35 1010.27 1010.35 1010.43 1010.55 1010.67 1010.87 1010.99 1011.15 1011.31 1011.43 1011.51 1011.67 1011.87 1012.11 1012.43 1012.63 1012.83 1012.99 1013.19 1013.47 1013.71 1013.87 1014.03 1014.11 1014.23 1014.39 1014.51
1011.55 1011.27 1010.91 1010.47 1010.43 1010.51 1010.27 1010.03 1009.95 1009.95 1010.03 1009.99 1009.99 1010.03 1009.99 1009.95 1009.95 1010.03 1010.11 1010.23 1010.39 1010.51 1010.71 1010.83 1010.99 1011.07 1011.23 1011.43 1011.55 1011.71 1012.11 1012.47 1012.67 1012.87 1013.15 1013.43 1013.59 1013.67 1013.79 1013.87 1013.95 1014.11
1011.87 1011.59 1011.31 1011.07 1010.67 1010.15 1009.87 1009.95 1009.91 1009.87 1009.79 1009.71 1009.75 1009.71 1009.59 1009.55 1009.55 1009.55 1009.59 1009.75 1009.91 1010.07 1010.23 1010.31 1010.51 1010.59 1010.79 1010.91 1010.99 1011.07 1011.27 1011.91 1012.35 1012.67 1012.87 1013.15 1013.27 1013.39 1013.47 1013.55 1013.55 1013.63
1012.43 1011.87 1011.43 1010.99 1010.55 1010.19 1010.23 1010.11 1009.87 1009.79 1009.63 1009.55 1009.43 1009.31 1009.23 1009.19 1009.07 1009.07 1009.11 1009.23 1009.39 1009.63 1009.79 1009.95 1010.07 1010.15 1010.35 1010.35 1010.43 1010.51 1010.55 1010.99 1011.87 1012.19 1012.51 1012.67 1012.87 1013.03 1013.15 1013.23 1013.27 1013.23
1013.51 1013.55 1013.19 1012.55 1011.87 1011.31 1010.71 1010.19 1009.75 1009.35 1009.19 1008.95 1008.75 1008.67 1008.67 1008.59 1008.51 1008.47 1008.55 1008.71 1008.87 1009.11 1009.31 1009.51 1009.71 1009.83 1009.87 1009.83 1009.87 1009.99 1010.03 1010.19 1010.91 1011.63 1011.87 1012.03 1012.19 1012.39 1012.63 1012.83 1012.95 1012.99
1014.51 1013.95 1013.43 1012.83 1012.15 1011.47 1010.67 1009.99 1009.59 1009.11 1008.67 1008.35 1008.07 1007.83 1007.71 1007.79 1007.75 1007.87 1007.95 1008.15 1008.35 1008.63 1008.83 1009.11 1009.23 1009.35 1009.47 1009.43 1009.43 1009.47 1009.59 1009.75 1010.11 1010.59 1011.15 1011.47 1011.55 1011.71 1011.87 1012.11 1012.35 1012.59
1014.83 1014.15 1013.31 1012.59 1011.91 1011.27 1010.51 1009.79 1009.11 1008.71 1008.31 1007.67 1007.23 1006.95 1006.79 1006.79 1006.95 1007.15 1007.35 1007.59 1007.83 1008.11 1008.47 1008.71 1008.79 1008.87 1008.95 1008.99 1009.03 1009.11 1009.23 1009.47 1009.75 1010.03 1010.23 1010.55 1010.91 1011.11 1011.23 1011.39 1011.63 1011.83
1014.95 1014.39 1013.43 1012.51 1011.59 1010.91 1010.15 1009.47 1008.95 1008.23 1007.47 1006.95 1006.47 1006.31 1006.35 1006.27 1006.39 1006.51 1006.63 1006.95 1007.27 1007.63 1008.03 1008.23 1008.43 1008.51 1008.51 1008.55 1008.67 1008.79 1008.95 1009.19 1009.43 1009.67 1009.83 1010.03 1010.19 1010.39 1010.63 1010.75 1010.87 1011.03
1015.27 1014.55 1013.67 1012.67 1011.63 1010.71 1009.95 1009.11 1008.59 1008.03 1007.23 1006.47 1006.07 1005.99 1005.91 1005.87 1005.91 1006.11 1006.23 1006.43 1006.75 1007.15 1007.43 1007.75 1007.95 1008.19 1008.23 1008.23 1008.23 1008.27 1008.47 1008.91 1009.15 1009.35 1009.55 1009.71 1009.91 1009.99 1009.99 1010.07 1010.19 1010.23
1015.23 1014.55 1013.79 1012.75 1011.59 1010.59 1009.87 1009.03 1008.15 1007.51 1006.79 1006.11 1005.67 1005.59 1005.51 1005.51 1005.55 1005.87 1005.95 1006.03 1006.27 1006.67 1006.95 1007.31 1007.59 1007.79 1007.87 1007.87 1007.87 1007.87 1008.03 1008.39 1008.71 1008.99 1009.23 1009.35 1009.51 1009.55 1009.59 1009.55 1009.59 1009.59
1015.31 1014.67 1013.83 1013.03 1011.99 1010.71 1009.79 1009.07 1008.11 1007.15 1006.43 1005.75 1005.39 1005.39 1005.27 1005.27 1005.31 1005.51 1005.67 1005.75 1005.99 1006.43 1006.71 1006.87 1007.27 1007.55 1007.71 1007.55 1007.55 1007.59 1007.67 1007.99 1008.35 1008.59 1008.75 1008.95 1009.07 1009.11 1009.15 1009.15 1009.19 1009.23
Wind_Speed
11 11 11 12 12 12 13 14 14 14 14 12 12 12 12 11 12 13 13 12 12 12 13 13 13 13 12 12 12 11 11 11 10 10 11 11 10 12 11 11 11 10
14 13 12 12 12 12 12 12 14 14 14 14 12 11 10 10 12 12 13 13 13 13 13 13 13 13 13 12 12 12 11 11 12 9 10 13 11 11 12 13 12 10
14 14 14 15 14 15 15 14 13 12 13 13 13 11 9 9 11 12 12 12 13 13 13 13 13 13 12 12 12 12 11 12 12 11 11 12 11 11 11 11 11 12
15 14 14 14 14 15 15 14 14 13 12 12 12 11 9 8 10 11 11 13 12 13 13 13 14 13 13 13 12 11 12 12 11 11 11 10 11 11 11 10 11 11
17 17 15 14 14 14 14 14 15 14 14 13 12 11 10 10 10 11 11 12 12 12 12 13 14 14 14 13 14 12 12 11 12 12 11 11 11 11 10 10 9 10
20 19 18 16 14 14 14 14 15 14 15 14 13 10 10 11 11 11 12 12 12 12 13 13 13 14 14 14 13 13 12 12 12 13 13 12 11 11 9 9 9 10
21 20 20 17 16 15 14 15 14 14 14 13 11 11 10 11 11 12 12 12 13 13 13 13 14 14 13 13 13 13 13 13 13 13 14 12 11 12 12 10 10 10
22 21 18 17 19 15 15 14 14 13 14 13 14 11 10 11 12 11 11 12 12 13 13 14 14 14 14 13 13 14 14 12 13 14 14 14 12 13 13 10 10 10
20 20 20 19 20 17 15 14 13 13 13 13 13 10 11 11 11 12 12 13 13 13 13 13 14 14 14 14 13 14 14 13 13 14 14 14 14 13 13 11 11 11
23 21 22 20 18 17 15 14 13 13 12 12 12 11 11 11 11 12 12 13 13 13 13 13 14 13 14 14 14 14 14 13 13 13 13 12 12 11 11 11 12 12
23 22 20 20 19 17 17 14 14 13 12 12 11 12 11 11 11 12 12 13 13 14 14 14 14 14 14 14 14 13 14 13 12 11 11 11 11 11 11 11 12 13
22 21 21 21 20 18 18 17 14 13 12 12 11 12 12 12 12 11 12 13 13 13 13 14 14 13 14 14 14 14 14 13 12 12 12 10 11 12 11 11 13 12
21 18 16 16 16 17 17 17 16 13 13 13 12 12 12 12 12 13 12 12 13 13 14 14 14 14 13 13 14 14 12 11 13 14 14 13 13 14 13 12 12 13
18 16 14 13 12 15 16 18 16 13 12 12 12 11 11 11 11 13 12 12 13 13 13 12 12 13 13 13 12 12 12 11 14 14 14 14 13 14 14 13 13 13
20 16 12 11 13 16 17 17 16 15 12 11 10 10 9 11 11 11 12 12 12 12 12 12 12 12 11 12 11 11 10 11 15 15 14 14 13 13 13 13 13 12
17 13 11 12 15 16 15 14 16 14 9 11 10 10 10 11 11 11 11 12 12 12 12 11 11 10 13 21 19 12 10 11 13 14 14 13 13 12 12 12 13 12
16 17 17 16 15 15 16 15 16 13 9 9 10 10 11 11 11 11 11 11 12 12 12 11 10 10 20 22 23 24 15 10 13 13 13 13 12 12 11 12 12 13
17 16 15 15 16 17 15 14 12 13 10 9 9 10 10 10 11 11 11 11 10 11 11 11 11 16 23 23 23 24 22 13 12 12 11 11 12 12 11 11 11 12
19 19 19 19 19 16 11 12 13 12 10 9 11 10 9 10 11 11 11 11 11 11 11 11 10 19 22 24 23 23 25 20 12 13 12 13 12 12 12 11 10 10
20 21 22 20 19 18 17 16 15 12 10 11 11 8 10 10 11 12 11 11 11 10 11 10 11 17 23 23 23 24 24 21 10 14 14 13 13 13 12 12 11 11
19 18 20 21 21 21 20 19 18 15 15 10 9 10 11 11 11 12 11 10 10 10 9 12 10 19 22 23 23 23 23 20 10 11 10 12 13 13 13 12 13 12
20 20 20 21 21 20 20 20 19 18 20 16 11 10 10 9 9 10 10 10 11 10 10 13 11 21 22 22 23 22 23 14 11 11 10 9 11 13 12 12 12 12
19 20 22 22 22 24 23 22 21 22 20 14 10 9 10 10 12 13 13 12 12 11 13 11 12 17 21 22 22 23 19 11 10 9 8 9 10 10 12 13 13 13
23 23 24 24 24 24 23 21 20 18 18 15 12 8 9 11 10 12 12 12 12 12 12 12 11 14 21 21 22 23 19 11 9 8 9 11 10 12 10 10 13 21
20 21 21 22 22 22 21 21 20 17 16 15 8 7 8 8 9 11 10 10 11 11 15 13 11 13 19 21 22 22 18 11 9 9 10 10 10 11 11 11 11 14
20 21 22 21 23 23 20 19 18 17 16 16 9 6 10 10 10 10 10 10 9 10 10 11 10 10 13 20 20 21 21 13 8 8 10 11 10 10 10 11 12 11
Wind_Direction
274 270 269 270 268 265 263 261 258 257 254 244 234 226 215 210 201 198 198 203 207 211 212 213 211 211 214 214 214 216 215 213 213 213 214 216 220 222 227 229 228 232
287 279 272 268 269 268 263 257 256 254 253 250 243 235 223 208 202 194 198 202 206 209 210 211 213 212 212 212 212 213 215 215 214 212 215 215 219 222 225 226 229 229
296 292 284 274 270 270 270 267 263 256 254 250 243 234 223 209 201 200 201 203 204 207 207 208 212 212 211 212 211 213 215 215 214 212 214 215 217 220 221 221 224 225
303 296 295 295 286 277 273 272 268 264 256 250 238 228 217 208 201 200 200 205 208 208 207 209 210 211 210 211 212 216 215 216 215 212 213 215 216 218 221 218 220 222
312 309 301 293 293 294 286 273 266 263 256 249 242 230 215 203 200 200 202 205 207 209 209 210 211 211 209 209 210 215 215 216 215 211 211 212 212 214 218 220 220 220
319 316 311 304 293 286 289 284 274 262 259 251 240 232 214 203 201 200 203 204 204 206 209 210 211 214 210 210 209 212 213 214 212 210 211 211 210 210 213 217 220 220
315 312 309 308 301 298 280 277 276 267 260 252 245 229 211 205 203 204 204 206 204 205 209 209 211 214 214 213 213 212 211 213 212 210 210 211 209 211 210 214 218 220
313 311 307 306 306 293 297 282 272 270 262 254 244 223 211 207 205 203 205 206 205 208 209 211 213 214 216 215 215 213 212 211 211 210 209 210 209 210 210 210 213 217
313 311 309 304 304 299 288 292 276 269 259 247 237 222 214 208 206 206 202 204 207 208 209 212 214 215 215 217 217 215 214 212 212 210 209 208 208 209 210 209 209 212
310 308 308 306 303 305 295 298 295 280 269 245 234 228 217 210 207 207 203 206 208 208 207 211 214 215 216 216 218 216 217 215 213 211 210 209 208 208 209 210 213 218
308 306 304 304 304 306 305 299 305 295 273 245 231 229 221 215 208 206 207 207 208 210 208 210 213 214 217 217 217 217 216 216 215 215 212 213 213 212 212 215 219 222
307 304 300 300 301 301 302 304 306 301 277 254 228 230 223 215 209 205 206 209 208 211 210 211 212 214 216 219 218 216 218 216 219 218 218 215 218 222 218 219 223 222
302 297 294 295 299 298 297 297 298 301 288 259 242 226 221 216 211 209 206 207 209 209 211 209 212 212 215 218 218 218 214 214 219 222 222 225 224 225 225 225 225 223
299 296 293 298 300 297 295 295 297 291 282 260 247 232 220 217 210 207 208 206 208 208 209 208 209 211 213 216 217 218 218 215 221 220 223 222 222 223 223 224 225 225
305 305 314 303 298 300 303 301 300 297 284 271 246 232 224 218 215 205 203 207 207 208 208 207 209 210 211 212 214 215 216 220 220 221 221 220 221 222 221 219 220 224
309 311 305 296 292 298 302 301 297 296 285 271 247 229 224 219 214 208 202 203 204 206 208 207 209 209 209 213 218 218 214 215 219 219 219 219 219 220 220 218 219 220
311 306 304 304 309 308 297 293 297 299 281 266 246 233 224 218 211 208 207 204 204 203 206 206 206 205 211 221 221 220 213 207 214 214 214 217 218 217 218 220 221 222
326 328 327 317 306 298 299 302 301 300 280 260 255 240 231 219 213 208 204 203 203 204 204 204 205 207 218 220 224 223 216 202 205 206 207 211 216 219 222 222 222 222
322 320 319 316 312 313 321 315 307 291 276 266 265 241 228 219 215 208 203 202 200 200 205 205 206 216 219 222 224 221 221 209 194 200 205 215 217 219 218 219 221 222
346 338 332 329 325 318 309 304 301 284 272 269 263 235 222 218 213 209 202 198 199 197 203 206 212 215 222 225 223 220 220 217 181 192 204 206 208 207 208 212 217 222
329 326 321 317 314 310 304 300 297 295 291 270 247 231 227 215 210 210 203 195 195 197 198 212 206 215 222 224 223 220 220 221 215 207 196 201 206 204 203 204 205 214
323 320 314 312 309 307 303 298 296 296 295 285 252 243 232 218 215 209 203 192 198 192 204 215 211 217 220 221 220 222 224 225 220 215 216 209 199 203 206 206 206 208
320 317 313 309 305 302 298 296 297 295 292 284 251 230 231 221 227 223 219 211 203 197 204 208 214 218 220 220 221 224 225 222 220 220 221 223 228 213 205 207 208 210
313 311 308 304 302 301 301 298 297 294 292 291 269 235 229 227 219 224 220 211 204 199 200 209 215 217 221 223 225 225 220 215 214 218 223 230 230 231 228 216 212 217
310 309 306 303 301 300 300 297 296 297 296 291 249 234 230 220 213 222 219 215 209 203 204 205 216 220 218 220 224 226 223 215 211 212 224 223 224 225 224 227 227 225
310 309 307 306 304 302 302 301 301 298 296 295 265 234 253 238 224 217 215 213 205 199 202 206 205 212 215 221 223 225 224 220 213 215 217 221 221 221 220 221 223 225